Home   Weather   Iquitos   Past weeks

Flag for Peru Past Weather in Iquitos, Loreto, Peru — Yesterday and Last 2 Weeks

Now
75 °F

Mostly cloudy.


Feels Like: 75 °F
Forecast: 77 / 88 °F
Wind: 9 mph from Southwest

Location: Iquitos Airport

Current Time: Jan 20, 2017 at 3:22:03 pm

Latest Report: Jan 20, 2017 at 3:00 pm


Visibility: N/A

Pressure: 29.80 "Hg

Humidity: 89%

Dew Point: 72 °F

Location of IquitosLocation

Past Weather in Iquitos — Graph

°F

Iquitos Temperature Yesterday

Maximum temperature yesterday: 91 °F (at 2:00 pm)
Minimum temperature yesterday: 75 °F (at 5:00 am)
Average temperature yesterday: 83 °F

High & Low Weather Summary for the Past Weeks

 TemperatureHumidityPressure
High93 °F (Jan 18, 4:00 pm)100% (Jan 15, 6:00 am)30.01 "Hg (Jan 15, 6:00 am)
Low72 °F (Jan 6, 12:06 pm)53% (Jan 18, 4:00 pm)29.68 "Hg (Jan 9, 3:00 pm)
Average79 °F86%29.83 "Hg
* Reported Jan 5 2:00 pm — Jan 20 2:00 pm, Iquitos, Weather by CustomWeather, © 2017

Note: Actual official high and low records may vary slightly from our data, if they occured in-between our weather recording intervals... More about our weather records

Advertising

Iquitos Weather History for the Previous 24 Hours

Scroll right to see more
 ConditionsComfort  
Time TempWeatherWind HumidityBarometerVisibility
2:00 pm
Fri, Jan 20
73 °FDrizzle. Broken clouds.10 mph94%29.83 "Hg5 mi
1:00 pm75 °FScattered showers. Partly sunny.14 mph83%29.83 "Hg5 mi
12:00 pm82 °FPartly sunny.5 mph79%29.86 "HgN/A
11:00 am82 °FPartly sunny.5 mph79%29.86 "HgN/A
10:00 am82 °FPartly sunny.5 mph79%29.86 "HgN/A
9:00 am81 °FPartly sunny.5 mph84%29.86 "HgN/A
8:00 am79 °FBroken clouds.5 mph89%29.86 "HgN/A
7:00 am77 °FCloudy.3 mph94%29.83 "HgN/A
6:00 am77 °FScattered showers. Cloudy.3 mph94%29.80 "Hg5 mi
5:00 am77 °FPassing clouds.3 mph94%29.77 "Hg5 mi
4:00 am77 °FPassing clouds.3 mph94%29.77 "Hg5 mi
3:00 am77 °FLight rain. Passing clouds.2 mph94%29.77 "Hg4 mi
2:00 am79 °FLight rain. Passing clouds.2 mph94%29.77 "Hg4 mi
1:35 am79 °FSprinkles. Passing clouds.3 mph94%29.77 "Hg3 mi
1:00 am79 °FPassing clouds.3 mph89%29.77 "HgN/A
12:00 am79 °FPassing clouds.3 mph89%29.77 "HgN/A
11:00 pm
Thu, Jan 19
81 °FPassing clouds.6 mph84%29.80 "HgN/A
10:00 pm81 °FPassing clouds.6 mph84%29.80 "HgN/A
9:00 pm81 °FPassing clouds.3 mph84%29.77 "HgN/A
8:00 pm82 °FPassing clouds.3 mph79%29.77 "HgN/A
7:00 pm82 °FPassing clouds.3 mph79%29.74 "HgN/A
6:00 pm86 °FScattered clouds.2 mph70%29.71 "HgN/A
5:00 pm90 °FScattered clouds.7 mph59%29.71 "HgN/A
4:00 pm91 °FPartly sunny.7 mph59%29.71 "HgN/A
3:00 pm91 °FPartly sunny.6 mph59%29.71 "HgN/A
Weather by CustomWeather, © 2017

See weather overviewHow to use our weather pages